This demonstration page uses our WeatherBlox Daily Observations layout. Learn more.

Left ArrowRight Arrow

39.08367, -84.50855

Hourly Observations for March 20, 2019

Temp ( °F °C ) Dew Point ( °F °C ) Humidity (%) Winds ( mph kmh ) Pressure ( in mb ) Visibility ( mi km ) Precip ( " mm )
12:53 am 00:53 Clear 35 1.7 28 -2.2 76 76 VRB 6 9 30.34 1027 10 16 N/A
1:53 am 01:53 Clear 34 1.1 28 -2.2 79 79 N N/A 30.33 1027 10 16 N/A
2:53 am 02:53 Clear 32 undefined 27 -2.8 82 82 undefined N/A 30.33 1027 10 16 N/A
3:53 am 03:53 Clear 30 -1.1 27 -2.8 88 88 VRB 3 6 30.30 1026 10 16 N/A
4:53 am 04:53 Clear 30 -1.1 26 -3.3 85 85 VRB 3 6 30.28 1025 10 16 N/A
5:53 am 05:53 Clear 30 -1.1 26 -3.3 85 85 SE 6 9 30.27 1025 10 16 N/A
6:53 am 06:53 Clear 30 -1.1 27 -2.8 88 88 SE 6 9 30.28 1025 10 16 N/A
7:53 am 07:53 Sunny 30 -1.1 26 -3.3 85 85 SE 6 9 30.28 1025 10 16 N/A
8:53 am 08:53 Sunny 32 undefined 27 -2.8 82 82 VRB 6 9 30.28 1025 10 16 N/A
9:53 am 09:53 Sunny 35 1.7 30 -1.1 82 82 N N/A 30.27 1025 10 16 N/A
11:53 am 11:53 Sunny 50 10 30 -1.1 46 46 SSW 8 13 30.23 1024 10 16 N/A
1:53 pm 13:53 Sunny 58 14.4 24 -4.4 27 27 SSW 13 20 30.15 1021 10 16 N/A
2:53 pm 14:53 Sunny 59 15 24 -4.4 26 26 SSW 14 22 30.11 1020 10 16 N/A
3:53 pm 15:53 Mostly Sunny 58 14.4 22 -5.6 25 25 SSW 17 28 30.08 1019 10 16 N/A
4:53 pm 16:53 Mostly Sunny 57 13.9 23 -5 27 27 S 15 24 30.05 1018 10 16 N/A
5:53 pm 17:53 Mostly Cloudy 57 13.9 25 -3.9 29 29 S 12 19 30.03 1017 10 16 N/A
6:53 pm 18:53 Cloudy 56 13.3 27 -2.8 33 33 S 7 11 30.01 1016 10 16 N/A
7:53 pm 19:53 Cloudy 54 12.2 28 -2.2 37 37 SW 10 17 30.01 1016 10 16 N/A
8:53 pm 20:53 Mostly Clear 53 11.7 27 -2.8 37 37 SW 5 7 30.00 1016 10 16 N/A
9:53 pm 21:53 Cloudy 52 11.1 32 undefined 47 47 WSW 10 17 30.01 1016 10 16 N/A
10:53 pm 22:53 Cloudy 51 10.6 36 2.2 56 56 W 17 28 30.01 1016 10 16 N/A
11:53 pm 23:53 Cloudy 50 10 38 3.3 63 63 WSW 15 24 30.01 1016 10 16 N/A

Powered by AerisWeather